Regional Weather Roundup
Issued by NWS Nashville, TN

Home | Current Version | Previous Version | Text Only | Print | Product List | Glossary On
Versions: 1 2 3 4 5 6 7 8 9 10 11 12 13 14 15 16 17 18 19 20 21 22 23 24 25 26 27 28 29 30 31 32 33 34 35 36 37 38 39 40 41 42 43 44 45 46 47 48
000
ASUS44 KOHX 292310
RWROHX
MIDDLE TENNESSEE HOURLY WEATHER ROUNDUP
NATIONAL WEATHER SERVICE NASHVILLE TN
600 PM CDT MON JUN 29 2015

NOTE: "FAIR" INDICATES FEW OR NO CLOUDS BELOW 12,000 FEET WITH
NO SIGNIFICANT WEATHER AND/OR OBSTRUCTIONS TO VISIBILITY.

* THESE REPORTS ARE NOT UNDER NWS QUALITY CONTROL AND MAY NOT
  REPORT WEATHER SUCH AS PRECIPITATION AND FOG.


TNZ005>011-023>034-057-059-062>066-078-080-300000
...NORTHERN MIDDLE TENNESSEE...

CITY           SKY/WX    TMP DP  RH WIND       PRES   REMARKS
CLARKSVILLE    PTSUNNY   75  70  84 SW3       29.85R
CROSSVILLE     PTSUNNY   77  63  61 SW7       29.95S
GALLATIN         N/A     85  32  15 VRB6      29.85F
DICKSON        PTSUNNY   82  70  65 SW10      29.87S
NASHVILLE      PTSUNNY   85  70  60 SW14G20   29.86S
ROCKWOOD       MOSUNNY   77  67  71 SW10      29.95S
SMYRNA         MOSUNNY   86  69  56 W14       29.87S HX  90
SPARTA         MOSUNNY   82  72  69 SW8       29.89R
$$
TNZ056-058-060-061-075>077-079-093>097-300000
...SOUTHERN MIDDLE TENNESSEE...

CITY           SKY/WX    TMP DP  RH WIND       PRES   REMARKS
COLUMBIA       PTSUNNY   72  70  94 W3        29.90R
LEWISBURG      PTSUNNY   82  70  67 SW43G64   29.89S SQUALL
MCMINNVILLE    MOSUNNY   81  72  74 S3        29.90F
SHELBYVILLE    PTSUNNY   82  70  65 SW10      29.90S
TULLAHOMA      PTSUNNY   82  66  57 SW10      29.93R
WINCHESTER     MOSUNNY   82  66  57 SW8       29.92S
$$


...KEY TO REMARKS...
VSB - VISIBILITY IN MILES
WCI - WIND CHILL INDEX
HX  - HEAT INDEX



USA.gov is the U.S. government's official web portal to all federal, state and local government web resources and services.